Regional Weather Roundup
Issued by NWS

Home | Current Version | Previous Version | Text Only | Print | Product List | Glossary Off
Versions: 1 2 3 4 5 6 7 8 9 10 11 12 13 14 15 16 17 18 19 20 21 22 23 24 25 26 27 28 29 30 31 32 33 34 35 36 37 38 39 40 41 42 43 44 45 46 47 48 49 50

000
ASUS43 KLSX 031610
RWRMO

WEATHER SUMMARY FOR MISSOURI
NATIONAL WEATHER SERVICE SPRINGFIELD MO
1100 AM CDT THU SEP 03 2015

NOTE: "FAIR" INDICATES FEW OR NO CLOUDS BELOW 12,000 FEET WITH NO
       SIGNIFICANT WEATHER AND/OR OBSTRUCTIONS TO VISIBILITY.
       CURRENT SKY AND/OR WEATHER CONDITIONS ARE NOT AVAILABLE FOR
       CHILLICOTHE AND FARMINGTON.

MOZ001>031-035>038-043-044-053-054-031700-
...NORTHERN AND WESTERN MISSOURI...

CITY           SKY/WX    TMP DP  RH WIND       PRES   REMARKS
KANSAS CTY INT PTSUNNY   85  69  58 S10       29.96F
KANSAS C DTWN  MOSUNNY   87  68  52 S9        29.95S HX  90
LEE`S SUMMIT     N/A     84  68  58 SW12      29.99S
ST JOSEPH      MOSUNNY   80  70  71 S10       29.93S
CHILLICOTHE      N/A     86  70  58 SW7       29.97S HX  90
KIRKSVILLE     LGT RAIN  85  70  60 S8        30.00S

$$
MOZ066>068-077>081-088>096-101>105-031700-
...SOUTHWEST MISSOURI...

CITY           SKY/WX    TMP DP  RH WIND       PRES   REMARKS
SPRINGFIELD    SUNNY     83  68  60 SW7       30.04S
JOPLIN         SUNNY     84  69  60 SW12      30.03S

$$
MOZ032>034-039>042-045>050-055>058-069>072-031700-
...CENTRAL MISSOURI...

CITY           SKY/WX    TMP DP  RH WIND       PRES   REMARKS
COLUMBIA       MOSUNNY   84  71  65 SW8       30.02S
JEFFERSON CITY MOSUNNY   79  68  69 S6        30.01S
ROLLA          PTSUNNY   85  68  56 SW8       30.03F
SEDALIA          N/A     87  68  52 SW10      30.02S HX  90
WHITEMAN AFB   MOSUNNY   86  67  53 SW12      29.99S
WARRENSBURG    SUNNY     82  68  61 S7        30.00S
OSAGE BEACH    MOSUNNY   84  68  58 S6        30.03F

$$
MOZ051-052-059>065-031700-
...EAST CENTRAL MISSOURI...

CITY           SKY/WX    TMP DP  RH WIND       PRES   REMARKS
ST LOUIS INTL  MOSUNNY   88  69  53 SW7       30.02F HX  92
SPIRIT OF STL  MOSUNNY   86  71  60 SW6       30.01S HX  91
ST CHARLES     SUNNY     86  71  60 W7        30.00S HX  91

$$
MOZ072>076-082>087-097>100-106>115-031700-
...SOUTH CENTRAL AND SOUTHEAST MISSOURI...

CITY           SKY/WX    TMP DP  RH WIND       PRES   REMARKS
CAPE GIRARDEAU SUNNY     86  70  58 CALM      30.03F HX  90
FARMINGTON     SUNNY     84  72  65 S7        30.07F
POPLAR BLUFF   SUNNY     85  73  67 MISG      30.02F HX  91
WEST PLAINS    SUNNY     83  68  60 S7        30.08S

$$


USA.gov is the U.S. government's official web portal to all federal, state and local government web resources and services.